TimeMDT,TemperatureF,Dew PointF,Humidity,Sea Level PressureIn,VisibilityMPH,Wind Direction,Wind SpeedMPH,Gust SpeedMPH,PrecipitationIn,Events,Conditions,WindDirDegrees,DateUTC
12:53 AM,-0.0,-5.1,79,30.46,10.0,Calm,Calm,-,N/A,,Clear,0,2013-03-20 06:53:00
1:53 AM,-0.0,-5.1,79,30.44,10.0,ENE,6.9,-,N/A,,Clear,60,2013-03-20 07:53:00
2:53 AM,1.0,-2.9,83,30.41,10.0,ENE,5.8,-,N/A,,Clear,70,2013-03-20 08:53:00
3:53 AM,-0.0,-5.1,79,30.38,10.0,East,6.9,-,N/A,,Clear,80,2013-03-20 09:53:00
4:53 AM,-0.0,-5.1,79,30.35,10.0,East,8.1,-,N/A,,Clear,80,2013-03-20 10:53:00
5:53 AM,-0.9,-6.0,79,30.32,10.0,East,6.9,-,N/A,,Clear,80,2013-03-20 11:53:00
6:53 AM,-2.0,-7.1,79,30.30,10.0,East,6.9,-,N/A,,Clear,90,2013-03-20 12:53:00
7:53 AM,1.9,-4.0,76,30.27,10.0,East,9.2,-,N/A,,Clear,80,2013-03-20 13:53:00
8:53 AM,3.9,-2.0,76,30.24,10.0,ENE,9.2,-,N/A,,Clear,60,2013-03-20 14:53:00
9:53 AM,10.9,3.0,70,30.21,10.0,East,12.7,-,N/A,,Clear,80,2013-03-20 15:53:00
10:53 AM,17.1,8.1,68,30.18,10.0,East,13.8,-,N/A,,Clear,80,2013-03-20 16:53:00
11:53 AM,21.9,12.9,68,30.13,10.0,East,18.4,-,N/A,,Clear,80,2013-03-20 17:53:00
12:53 PM,27.0,17.1,66,30.09,10.0,East,19.6,-,N/A,,Clear,80,2013-03-20 18:53:00
1:53 PM,32.0,21.0,64,30.04,10.0,East,17.3,-,N/A,,Clear,90,2013-03-20 19:53:00
2:53 PM,37.9,21.9,53,29.97,10.0,ESE,17.3,-,N/A,,Clear,110,2013-03-20 20:53:00
3:53 PM,37.9,19.9,48,29.95,10.0,ESE,17.3,23.0,N/A,,Clear,110,2013-03-20 21:53:00
4:53 PM,37.9,21.0,51,29.93,10.0,East,12.7,-,N/A,,Mostly Cloudy,100,2013-03-20 22:53:00
5:53 PM,37.0,21.0,52,29.93,10.0,East,15.0,-,N/A,,Overcast,90,2013-03-20 23:53:00
6:53 PM,35.1,23.0,61,29.91,10.0,East,16.1,-,N/A,,Overcast,90,2013-03-21 00:53:00
7:53 PM,32.0,24.1,73,29.89,10.0,ENE,16.1,-,N/A,,Overcast,60,2013-03-21 01:53:00
8:53 PM,34.0,21.9,61,29.89,10.0,ENE,8.1,18.4,N/A,,Overcast,70,2013-03-21 02:53:00
9:53 PM,32.0,23.0,69,29.86,10.0,ENE,17.3,-,N/A,,Overcast,70,2013-03-21 03:53:00
10:53 PM,32.0,21.9,66,29.84,10.0,East,16.1,-,N/A,,Overcast,80,2013-03-21 04:53:00
11:53 PM,30.2,21.2,69,29.74,10.0,East,21.9,-,N/A,,Overcast,100,2013-03-21 05:53:00